This is the latest recevied weather packets stored in our database for station/object K1BES. If no packets are shown the sender has not sent any weather packets the latest 10 day(s).
| Time | Temp. | Humidity | Pressure | Rain* | Wind** | Luminosity | Snow |
|---|---|---|---|---|---|---|---|
| 1788010921 | 32.22° C | 70% | 1019.7 hPa | 0 mm | - | 433 W/m² | - |
| 1788010615 | 31.11° C | 73% | 1019.7 hPa | 0 mm | - | 412 W/m² | - |
| 1788010314 | 30.56° C | 74% | 1019.5 hPa | 0 mm | - | 391 W/m² | - |
| 1788010009 | 30.56° C | 73% | 1019.7 hPa | 0 mm | - | 145 W/m² | - |
| 1788009708 | 30.56° C | 73% | 1019.7 hPa | 0 mm | - | 69 W/m² | - |
| 1788009407 | 30.56° C | 74% | 1019.6 hPa | 0 mm | - | 227 W/m² | - |
| 1788009102 | 30° C | 76% | 1019.6 hPa | 0 mm | - | 291 W/m² | - |
| 1788008798 | 30° C | 77% | 1019.8 hPa | 0 mm | - | 239 W/m² | - |
| 1788008497 | 29.44° C | 77% | 1019.6 hPa | 0 mm | - | 234 W/m² | - |
| 1788008195 | 29.44° C | 78% | 1019.6 hPa | 0 mm | - | 84 W/m² | - |
| 1788007893 | 28.89° C | 79% | 1019.7 hPa | 0 mm | - | 151 W/m² | - |
| 1788007592 | 28.33° C | 82% | 1019.5 hPa | 0 mm | - | 205 W/m² | - |
| 1788007292 | 27.78° C | 82% | 1019.7 hPa | 0 mm | - | 110 W/m² | - |
| 1788006987 | 27.22° C | 84% | 1019.9 hPa | 0 mm | - | 102 W/m² | - |
| 1788006687 | 26.67° C | 85% | 1019.8 hPa | 0 mm | - | 108 W/m² | - |
| 1788006382 | 26.11° C | 88% | 1019.9 hPa | 0 mm | - | 131 W/m² | - |
| 1788006080 | 25.56° C | 90% | 1019.9 hPa | 0 mm | - | 103 W/m² | - |
| 1788005780 | 25.56° C | 90% | 1019.8 hPa | 0 mm | - | 39 W/m² | - |
| 1788005475 | 25° C | 91% | 1019.9 hPa | 0 mm | - | 39 W/m² | - |
| 1788005175 | 25° C | 91% | 1019.9 hPa | 0 mm | - | 33 W/m² | - |
| 1788004875 | 25° C | 92% | 1020 hPa | 0 mm | - | 31 W/m² | - |
| 1788004574 | 25° C | 92% | 1019.5 hPa | 0 mm | - | 29 W/m² | - |
| 1788004268 | 24.44° C | 92% | 1020 hPa | 0 mm | - | 27 W/m² | - |
| 1788003967 | 24.44° C | 92% | 1019.7 hPa | 0 mm | - | 24 W/m² | - |
| 1788003667 | 24.44° C | 92% | 1019.6 hPa | 0 mm | - | 22 W/m² | - |
* Rain latest hour (hover to see other rain measurements)
** Current wind speed in m/s (hover to see current wind gust speed)